Regional Weather Roundup
Issued by NWS

Home | Current Version | Previous Version | Graphics & Text | Print | Product List | Glossary Off
Versions: 1 2 3 4 5 6 7 8 9 10 11 12 13 14 15 16 17 18 19 20 21 22 23 24 25 26 27 28 29 30 31 32 33 34 35 36 37 38 39 40 41 42 43 44 45 46 47 48 49 50

000
ASUS43 KMPX 060201
RWRMN
WEATHER ROUNDUP FOR MINNESOTA
NATIONAL WEATHER SERVICE TWIN CITIES/CHANHASSEN MN
900 PM CDT THU MAY 05 2016


NOTE: "FAIR" INDICATES FEW OR NO CLOUDS BELOW 12,000 FEET WITH NO
SIGNIFICANT WEATHER AND/OR OBSTRUCTIONS TO VISIBILITY. N/A MEANS
CURRENT SKY AND/OR WEATHER CONDITIONS ARE NOT AVAILABLE.

MNZ060>063-068>070-060300-
   Twin Cities Metro

CITY           SKY/WX    TMP DP  RH WIND       PRES   REMARKS
TWIN CITIES    PTCLDY    74  38  27 S7        29.87F
ST PAUL        CLEAR     61  43  51 S6        29.87F
CRYSTAL        CLEAR     70  41  34 S5        29.86S
BLAINE         PTCLDY    66  41  39 VRB3      29.87S
EDEN PRAIRIE   CLEAR     71  39  31 S6        29.87S
SOUTH ST PAUL  CLEAR     67  41  38 CALM      29.87F
LAKE ELMO      FAIR      61  45  55 S5        29.88F
$$
MNZ001>005-007-008-013>017-022>024-027-028-060300-
   Northwest Minnesota

CITY           SKY/WX    TMP DP  RH WIND       PRES   REMARKS
BEMIDJI        CLEAR     77  35  22 SW6       29.77R
HALLOCK        PTCLDY    81  30  16 SW13      29.67R
ROSEAU         CLEAR     77  45  31 SW5       29.69R
WARROAD        PTCLDY    73  50  43 S3        29.69R
THIEF RVR FALL CLEAR     79  34  19 SW10      29.74S
CROOKSTON      CLEAR     77  34  20 W6        29.74R
FOSSTON        CLEAR     73  32  21 SW5       29.77R
DETROIT LAKES  CLEAR     75  37  25 SW7       29.81S
MOORHEAD       CLEAR     81  37  21 SW8       29.77S
PARK RAPIDS    CLEAR     72  37  28 SW8       29.80R
MAHNOMEN       FAIR      80  37  21 SW10      29.77R
$$
MNZ006-009>011-018-025>026-060300-
   North Central Minnesota

CITY           SKY/WX    TMP DP  RH WIND       PRES   REMARKS
BAUDETTE       PTCLDY    70  40  33 CALM      29.69S
FLAG ISLAND    CLEAR     61  43  51 S8        29.66S
INTL FALLS     CLEAR     65  48  54 CALM      29.70R
WASKISH        CLEAR     77  41  27 SW9       29.72S
BIG FORK       CLEAR     73  43  33 SW8       29.74S
LONGVILLE      CLEAR     73  41  31 SW3       29.79S
GRAND RAPIDS   CLEAR     75  43  31 S6        29.79S
CRANE LAKE     CLEAR     63  55  77 CALM      29.72S
ORR            PTCLDY    75  36  23 CALM      29.70S
COOK           CLOUDY    75  43  31 SW5       29.75R
WALKER         FAIR      78  39  24 SW9       29.78R
$$
MNZ012-019>021-037-060300-
   Northeast Minnesota

CITY           SKY/WX    TMP DP  RH WIND       PRES   REMARKS
DULUTH         PTCLDY    72  41  32 SW12      29.79S
ELY            PTCLDY    73  39  29 S5        29.75S
HIBBING        PTCLDY    72  41  32 SW5       29.76S
EVELETH        MOCLDY    72  39  30 SW7       29.78R
DULUTH HARBOR  PTCLDY    72  45  37 S13       29.77S
TWO HARBORS    CLOUDY    72  46  40 SW3       29.76S
SILVER BAY     CLOUDY    63  39  42 CALM      29.76S
GRAND MARAIS     N/A     43  35  73 NE9       29.81S
G MARAIS ARPRT CLOUDY    55  36  47 S5        29.83R
$$
MNZ029>031-032-039>041-046>048-054>057-064-060300-
   West Central Minnesota

CITY           SKY/WX    TMP DP  RH WIND       PRES   REMARKS
FERGUS FALLS   CLEAR     73  43  33 SW8       29.78R
WHEATON        CLEAR     75  43  31 S8        29.84S
MORRIS         CLEAR     73  43  33 SW10      29.84S
ALEXANDRIA     CLEAR     71  42  35 SW9       29.86S
ELBOW LAKE     FAIR      69  41  36 W7        29.84S
WADENA         CLEAR     73  43  33 SW7       29.82S
GLENWOOD       CLEAR     70  43  37 SW9       29.87S
APPLETON       CLEAR     73  37  27 SW8       29.86R
BENSON         CLEAR     73  37  27 W7        29.86R
ORTONVILLE     CLEAR     73  39  29 S3        29.86R
MADISON        CLEAR     70  43  37 SW9       29.88R HAZE
WILLMAR        FAIR      73  43  33 SW10      29.89R
$$
MNZ033>034-036-042>043-049>051-058-059-060300-
   Central Minnesota

CITY           SKY/WX    TMP DP  RH WIND       PRES   REMARKS
ST CLOUD       PTCLDY    72  42  34 SW7       29.85S
SAUK CENTRE      N/A     68  45  43 SW7       29.86R
PAYNESVILLE    CLEAR     73  41  31 S7        29.87S
AITKIN         CLEAR     73  36  25 S6        29.80S
PINE RIVER     CLEAR     73  46  38 CALM      29.84S
BRAINERD       CLEAR     68  44  42 S8        29.82S
STAPLES        CLEAR     73  37  27 SW6       29.83R
LONG PRAIRIE   FAIR      72  43  35 S5        29.85S
LITTLE FALLS   CLEAR     72  41  33 SW3       29.85R
LITCHFIELD     CLEAR     73  43  33 CALM      29.88S
BUFFALO        CLEAR     71  41  33 CALM      29.87S
MAPLE LAKE     CLEAR     71  45  38 S3        29.87S
HUTCHINSON     PTCLDY    72  44  37 SW5       29.90R
$$
MNZ037-044-045-052-053-060300-
   East Central Minnesota

CITY           SKY/WX    TMP DP  RH WIND       PRES   REMARKS
PRINCETON      CLEAR     72  41  33 S3        29.85S
MORA           CLEAR     64  43  45 S5        29.86R
CAMBRIDGE      CLEAR     72  48  43 S5        29.84S
RUSH CITY      PTCLDY    67  39  35 S5        29.85S
MOOSE LAKE     CLEAR     70  41  35 S6        29.80S
HINCKLEY       CLOUDY    70  43  37 SW5       29.83S
CLOQUET        CLEAR     72  36  26 SW6       29.80S
MCGREGOR       PTCLDY    68  45  42 S5        29.81S
$$
MNZ071>073-080-081-089-090-097-098-060300-
   Southwest Minnesota

CITY           SKY/WX    TMP DP  RH WIND       PRES   REMARKS
MONTEVIDEO     CLEAR     72  41  33 SW8       29.89S
GRANITE FALLS  CLEAR     71  44  38 S10       29.90R
CANBY          CLEAR     74  44  33 SW6       29.89S
MARSHALL       CLEAR     69  45  41 SW8       29.90S
REDWOOD FALLS  CLEAR     73  41  31 SW10      29.89R
OLIVIA         CLEAR     70  41  35 SW8       29.89R
PIPESTONE      CLEAR     64  48  55 SW6       29.94S
WINDOM         CLEAR     66  41  39 CALM      29.94R
WORTHINGTON    CLEAR     68  43  40 SW9       29.95S
JACKSON        CLEAR     68  36  30 SW7       29.95S
TRACY          CLEAR     70  44  38 SW9       29.92R
SLAYTON        CLEAR     67  44  42 SW6       29.94S
$$
MNZ065>067-074>077-082>085-091>093-060300-
   South Central Minnesota

CITY           SKY/WX    TMP DP  RH WIND       PRES   REMARKS
MANKATO        CLEAR     72  37  28 SW6       29.91S
ST JAMES       CLEAR     64  39  39 SW5       29.93R
FAIRMONT       CLEAR     70  39  32 S5        29.93S
GLENCOE        CLEAR     73  45  36 CALM      29.88R
FARIBAULT      CLEAR     70  39  32 CALM      29.91S
OWATONNA       CLEAR     66  36  32 S8        29.92S
WASECA         CLEAR     63  37  39 S6        29.93S HAZE
ALBERT LEA     CLEAR     66  41  39 CALM      29.94R
$$
MNZ078>079-086>088-094>096-060300-
   Southeast Minnesota

CITY           SKY/WX    TMP DP  RH WIND       PRES   REMARKS
ROCHESTER      CLEAR     62  38  40 S8        29.94R
RED WING       CLEAR     61  45  55 CALM      29.89S
STANTON        CLEAR     62  39  42 CALM      29.89S
DODGE CENTER   CLEAR     63  34  34 SW6       29.93S
WINONA         CLEAR     61  43  51 CALM      29.93F
AUSTIN         CLEAR     64  37  36 SW3       29.94R
PRESTON        CLEAR     65  35  32 S5        29.95R
$$
ABBREVIATIONS USED IN REMARKS
   TC - TEMPERATURES IN CELSIUS
  WCI - WIND CHILL INDEX
   HX - HEAT INDEX
  VSB - VISIBILITY
$$



USA.gov is the U.S. government's official web portal to all federal, state and local government web resources and services.